Philadelphia Wings Airport, PA

10:39 AM EST on November 12, 2019 (GMT -0500)
Philadelphia Wings Airport

Weather History for KLOM - October, 2019

Change the Weather History Date:

Monday, October 21, 2019

  Actual Average (KPNE) Record (KPNE)
Temperature  
Mean Temperature 58 °F -  
Max Temperature 68 °F 61 °F 81 °F (2016)
Min Temperature 47 °F 42 °F 36 °F (1997)
Degree Days  
Heating Degree Days 8    
Growing Degree Days 8 (Base 50)    
Moisture  
Dew Point 48 °F    
Average Humidity 79    
Maximum Humidity 99    
Minimum Humidity 43    
Precipitation  
Precipitation 0.00 in - - ()
Sea Level Pressure  
Sea Level Pressure 30.06 in    
Wind  
Wind Speed 4 mph (NE)    
Max Wind Speed 9 mph    
Max Gust Speed -    
Visibility 10 miles    
Events      
Averages and records for this station are not official NWS values.
T = Trace of Precipitation, MM = Missing Value Source: NWS Daily Summary

Daily Weather History Graph

Daily Weather History Graph

Search for Another Location

Airport or City:

Astronomy

Oct. 21, 2019 Rise Set
Actual Time 7:17 AM EDT 6:12 PM EDT
Civil Twilight 6:50 AM EDT 6:40 PM EDT
Nautical Twilight 6:18 AM EDT 7:12 PM EDT
Astronomical Twilight 5:47 AM EDT 7:43 PM EDT
Moon No Moon Rise 2:34 PM EDT (10/21)
Length of Visible Light 11h 50m
Length of Day
10h 55m
Waning Gibbous, 48% of the Moon is Illuminated
Oct 21
Waning Gibbous
Oct 27
New
Nov 4
First Quarter
Nov 12
Full
Nov 19
Last Quarter

Hourly Weather History & Observations

Time (EDT) Temp. Dew Point Humidity Pressure Visibility Wind Dir Wind Speed Gust Speed Precip Events Conditions
12:15 AM 52.2 °F 51.3 °F 97% 29.96 in 7.0 mi North 5.8 mph - N/A   Overcast
12:35 AM 52.3 °F 51.4 °F 97% 29.96 in 7.0 mi NE 6.9 mph - N/A   Overcast
12:55 AM 52.2 °F 51.4 °F 97% 29.96 in 7.0 mi North 4.6 mph - N/A   Overcast
1:15 AM 52.2 °F 51.1 °F 96% 29.97 in 10.0 mi North 4.6 mph - N/A   Overcast
1:35 AM 52.2 °F 50.9 °F 95% 29.98 in 10.0 mi North 4.6 mph - N/A   Overcast
1:55 AM 52.0 °F 50.7 °F 95% 29.98 in 10.0 mi North 6.9 mph - N/A   Overcast
2:15 AM 52.2 °F 50.7 °F 95% 29.99 in 10.0 mi North 5.8 mph - N/A   Overcast
2:35 AM 52.2 °F 50.5 °F 94% 29.99 in 10.0 mi North 5.8 mph - N/A   Overcast
2:55 AM 52.0 °F 50.4 °F 94% 29.99 in 10.0 mi NNW 6.9 mph - N/A   Overcast
3:15 AM 51.8 °F 50.0 °F 94% 29.98 in 10.0 mi North 4.6 mph - N/A   Overcast
3:35 AM 50.7 °F 49.3 °F 95% 29.99 in 10.0 mi North 3.5 mph - N/A   Mostly Cloudy
3:55 AM 49.6 °F 48.7 °F 97% 29.99 in 10.0 mi Calm Calm - N/A   Scattered Clouds
4:15 AM 49.1 °F 48.4 °F 97% 30.00 in 10.0 mi NNW 3.5 mph - N/A   Scattered Clouds
4:35 AM 48.7 °F 48.0 °F 97% 30.00 in 7.0 mi NNW 4.6 mph - N/A   Clear
4:55 AM 48.7 °F 48.0 °F 97% 30.01 in 10.0 mi North 3.5 mph - N/A   Clear
5:15 AM 48.2 °F 47.3 °F 97% 30.01 in 10.0 mi Calm Calm - N/A   Clear
5:35 AM 48.4 °F 47.3 °F 96% 30.03 in 10.0 mi Calm Calm - N/A   Clear
5:55 AM 48.2 °F 47.1 °F 96% 30.04 in 10.0 mi NNW 3.5 mph - N/A   Clear
6:15 AM 48.2 °F 47.1 °F 96% 30.06 in 10.0 mi WNW 3.5 mph - N/A   Clear
6:35 AM 48.0 °F 47.1 °F 97% 30.07 in 10.0 mi NNW 4.6 mph - N/A   Clear
6:55 AM 47.7 °F 46.8 °F 97% 30.06 in 10.0 mi North 3.5 mph - N/A   Clear
7:15 AM 47.8 °F 46.8 °F 96% 30.05 in 10.0 mi North 5.8 mph - N/A   Clear
7:35 AM 48.2 °F 46.8 °F 95% 30.05 in 10.0 mi North 4.6 mph - N/A   Clear
7:55 AM 48.7 °F 47.3 °F 95% 30.06 in 10.0 mi Calm Calm - N/A   Clear
8:15 AM 50.0 °F 47.8 °F 92% 30.07 in 10.0 mi Calm Calm - N/A   Clear
8:35 AM 51.3 °F 48.4 °F 90% 30.07 in 10.0 mi North 4.6 mph - N/A   Clear
8:55 AM 52.7 °F 49.3 °F 88% 30.09 in 10.0 mi North 3.5 mph - N/A   Clear
9:15 AM 54.0 °F 48.7 °F 82% 30.08 in 10.0 mi NNE 4.6 mph - N/A   Clear
9:35 AM 55.0 °F 47.8 °F 77% 30.07 in 10.0 mi NNE 3.5 mph - N/A   Clear
9:55 AM 56.5 °F 48.7 °F 75% 30.08 in 10.0 mi North 5.8 mph - N/A   Clear
10:15 AM 57.7 °F 48.0 °F 70% 30.09 in 10.0 mi North 5.8 mph - N/A   Clear
10:35 AM 59.0 °F 47.8 °F 66% 30.09 in 10.0 mi NNE 8.1 mph - N/A   Clear
10:55 AM 59.9 °F 47.7 °F 64% 30.09 in 10.0 mi North 8.1 mph - N/A   Clear
11:15 AM 61.0 °F 47.7 °F 62% 30.09 in 10.0 mi NNE 5.8 mph - N/A   Clear
11:35 AM 62.6 °F 48.2 °F 59% 30.09 in 10.0 mi Calm Calm - N/A   Clear
11:55 AM 62.4 °F 47.3 °F 58% 30.08 in 10.0 mi NNE 4.6 mph - N/A   Clear
12:15 PM 62.6 °F 48.2 °F 59% 30.08 in 10.0 mi East 4.6 mph - N/A   Clear
12:35 PM 64.6 °F 48.0 °F 55% 30.08 in 10.0 mi North 4.6 mph - N/A   Clear
12:55 PM 64.4 °F 48.2 °F 56% 30.07 in 10.0 mi North 6.9 mph - N/A   Clear
1:15 PM 65.3 °F 47.3 °F 52% 30.07 in 10.0 mi Calm Calm - N/A   Clear
1:35 PM 66.2 °F 48.2 °F 52% 30.06 in 10.0 mi East 9.2 mph - N/A   Clear
1:55 PM 66.4 °F 44.8 °F 46% 30.06 in 10.0 mi ENE 6.9 mph - N/A   Clear
2:15 PM 66.2 °F 46.4 °F 49% 30.06 in 10.0 mi ENE 5.8 mph - N/A   Clear
2:35 PM 68.0 °F 46.4 °F 46% 30.05 in 10.0 mi East 5.8 mph - N/A   Clear
2:55 PM 67.3 °F 46.0 °F 46% 30.06 in 10.0 mi East 5.8 mph - N/A   Clear
3:15 PM 68.0 °F 46.4 °F 46% 30.06 in 10.0 mi NE 3.5 mph - N/A   Clear
3:35 PM 68.0 °F 46.4 °F 46% 30.06 in 10.0 mi East 8.1 mph - N/A   Clear
3:55 PM 68.0 °F 44.6 °F 43% 30.07 in 10.0 mi East 5.8 mph - N/A   Clear
4:15 PM 68.0 °F 46.4 °F 46% 30.07 in 10.0 mi SE 4.6 mph - N/A   Clear
4:35 PM 66.9 °F 45.1 °F 45% 30.07 in 10.0 mi East 3.5 mph - N/A   Clear
4:55 PM 66.2 °F 44.6 °F 46% 30.07 in 10.0 mi East 4.6 mph - N/A   Clear
5:15 PM 65.8 °F 44.2 °F 46% 30.07 in 10.0 mi ESE 5.8 mph - N/A   Clear
5:35 PM 64.2 °F 44.6 °F 49% 30.07 in 10.0 mi East 4.6 mph - N/A   Clear
5:55 PM 61.9 °F 45.0 °F 54% 30.07 in 10.0 mi East 4.6 mph - N/A   Clear
6:15 PM 59.5 °F 45.1 °F 59% 30.07 in 10.0 mi East 5.8 mph - N/A   Clear
6:35 PM 54.5 °F 48.9 °F 81% 30.06 in 10.0 mi Calm Calm - N/A   Clear
6:55 PM 52.7 °F 48.7 °F 86% 30.09 in 10.0 mi Calm Calm - N/A   Clear
7:15 PM 50.7 °F 48.7 °F 93% 30.10 in 10.0 mi Calm Calm - N/A   Clear
7:35 PM 49.8 °F 47.7 °F 92% 30.10 in 10.0 mi ENE 3.5 mph - N/A   Clear
7:55 PM 49.5 °F 48.2 °F 95% 30.11 in 10.0 mi ESE 3.5 mph - N/A   Clear
8:15 PM 50.7 °F 48.4 °F 92% 30.11 in 10.0 mi East 4.6 mph - N/A   Clear
8:35 PM 49.1 °F 47.8 °F 95% 30.11 in 10.0 mi East 4.6 mph - N/A   Clear
8:55 PM 49.3 °F 48.2 °F 96% 30.11 in 10.0 mi East 3.5 mph - N/A   Clear
9:15 PM 48.0 °F 47.3 °F 97% 30.12 in 10.0 mi Calm Calm - N/A   Scattered Clouds
9:35 PM 48.0 °F 47.3 °F 97% 30.11 in 10.0 mi East 3.5 mph - N/A   Scattered Clouds
9:55 PM 47.8 °F 47.3 °F 98% 30.11 in 10.0 mi Calm Calm - N/A   Mostly Cloudy
10:15 PM 49.6 °F 49.3 °F 99% 30.12 in 10.0 mi Calm Calm - N/A   Overcast
10:35 PM 51.3 °F 50.7 °F 98% 30.12 in 10.0 mi Calm Calm - N/A   Overcast
10:55 PM 54.3 °F 52.0 °F 92% 30.12 in 10.0 mi East 3.5 mph - N/A   Overcast
11:15 PM 55.8 °F 52.7 °F 89% 30.12 in 10.0 mi East 4.6 mph - N/A   Overcast
11:35 PM 57.2 °F 52.9 °F 85% 30.12 in 10.0 mi SE 4.6 mph - N/A   Overcast
11:55 PM 57.4 °F 53.2 °F 86% 30.11 in 10.0 mi SSE 3.5 mph - N/A   Overcast